Overview Statistics Trail Chart Weather Telemetry Raw packets
 

This is the latest recevied weather packets stored in our database for station/object SV9TNF-56. If no packets are shown the sender has not sent any weather packets the latest 10 day(s).

<< 87 88 89 90 91 92 93 >>
Time Temp. Humidity Pressure Rain* Wind** Luminosity Snow
1788020815 25° C 51% 1019 hPa 0 mm 12.52 m/s, 237° - -
1788020515 25° C 50% 1018.6 hPa 0 mm 12.07 m/s, 109° - -
1788020215 25° C 49% 1018.6 hPa 0 mm 9.83 m/s, 87° - -
1788019915 25° C 48% 1018.3 hPa 0 mm 14.31 m/s, 121° - -
1788019615 25° C 47% 1018.3 hPa 0 mm 8.05 m/s, 290° - -
1788019315 25° C 46% 1018.3 hPa 0 mm 12.07 m/s, 120° - -
1788019015 25° C 48% 1018 hPa 0 mm 15.2 m/s, 218° - -
1788018715 25° C 49% 1018 hPa 0 mm 12.96 m/s, 275° - -
1788018415 25° C 50% 1018.3 hPa 0 mm 12.96 m/s, 216° - -
1788018115 25° C 49% 1018.3 hPa 0 mm 21.01 m/s, 166° - -
1788017814 25° C 47% 1018.3 hPa 0 mm 22.35 m/s, 126° - -
1788017515 25° C 48% 1018 hPa 0 mm 24.59 m/s, 144° - -
1788017214 25° C 49% 1018 hPa 0 mm 17.88 m/s, 101° - -
1788016914 25° C 47% 1018 hPa 0 mm 23.69 m/s, 354° - -
1788016614 25° C 48% 1018.3 hPa 0 mm 14.31 m/s, 108° - -
1788016314 25.56° C 43% 1018.6 hPa 0 mm 14.31 m/s, 102° - -
1788016014 25.56° C 39% 1018.6 hPa 0 mm 22.8 m/s, 96° - -
1788015714 25.56° C 38% 1018.3 hPa 0 mm 32.63 m/s, 128° - -
1788015414 25.56° C 34% 1018.6 hPa 0 mm 26.82 m/s, 111° - -
1788015114 25.56° C 38% 1018.6 hPa 0 mm 38.89 m/s, 106° - -
1788014814 25.56° C 33% 1018.6 hPa 0 mm 29.5 m/s, 132° - -
1788014513 25.56° C 40% 1019 hPa 0 mm 29.06 m/s, 65° - -
1788014213 25° C 40% 1019 hPa 0 mm 39.79 m/s, 89° - -
1788013913 25° C 44% 1018.6 hPa 0 mm 29.5 m/s, 68° - -
1788013613 25° C 50% 1018.6 hPa 0 mm 22.35 m/s, 91° - -

* Rain latest hour (hover to see other rain measurements)
** Current wind speed in m/s (hover to see current wind gust speed)